Theta_e
306 306 309 308 309 307 306 302 306 307 307 306 306 306 303 305 305 302 304 304 306 307 310 313 312 312 310 308 312 316 315 315 315 318 316 315 319 320 321 323 322 317 316 317
308 307 307 308 307 306 304 303 305 307 305 304 306 302 302 303 304 303 303 304 305 306 307 308 309 313 310 309 314 315 316 318 318 320 317 316 318 320 320 320 314 319 322 319
307 308 308 306 305 304 304 303 306 299 301 299 303 303 302 301 302 303 302 303 304 304 307 305 306 308 307 307 310 313 315 314 317 318 319 318 320 321 320 320 321 319 318 317
307 308 306 305 304 303 303 296 299 299 302 298 301 301 301 301 300 302 302 303 304 303 299 304 305 306 306 306 309 312 316 318 315 315 315 318 319 321 321 322 320 320 318 318
308 306 305 303 303 303 297 296 298 293 298 299 301 302 299 301 301 302 303 302 303 302 301 303 303 305 305 307 310 310 313 316 317 316 315 317 317 320 320 321 321 321 318 315
307 306 304 303 302 301 295 296 295 298 299 295 298 297 299 301 301 301 301 301 302 302 302 301 300 301 304 306 308 312 308 311 315 317 314 316 319 317 319 319 319 319 320 318
307 306 304 303 302 301 299 297 294 295 299 298 298 299 299 301 300 301 302 301 302 301 301 302 302 302 303 304 305 306 307 307 307 309 316 320 316 313 316 319 318 318 318 316
306 303 302 301 300 299 299 301 297 293 297 296 299 300 300 298 300 299 301 301 300 303 305 302 303 305 308 305 305 306 305 307 306 309 317 316 312 310 316 318 319 316 317 317
302 301 300 300 299 300 301 299 299 296 297 295 295 296 298 294 289 290 300 299 300 304 304 306 297 299 298 299 308 307 306 307 308 310 318 321 314 308 314 315 320 316 316 316
300 300 300 300 301 301 300 297 298 295 296 293 294 295 297 296 295 292 298 300 301 302 302 306 302 306 304 302 310 315 312 311 311 312 318 312 308 307 314 321 318 312 314 315
301 299 299 298 298 298 298 295 297 296 290 292 294 296 299 300 296 297 296 300 301 303 304 302 298 302 305 307 307 311 314 316 315 316 316 317 304 313 317 313 304 305 307 310
300 299 299 298 298 298 298 296 295 295 292 294 292 293 293 294 295 298 298 297 300 300 303 303 305 309 308 307 310 309 313 314 313 315 314 304 307 303 304 302 303 305 304 305
299 298 297 297 297 297 297 295 295 294 292 293 292 294 293 293 294 295 303 300 302 304 301 304 307 309 303 309 307 310 307 297 310 309 302 299 298 299 298 300 302 299 299 300
298 298 297 296 296 296 297 294 293 294 287 288 291 294 293 292 293 294 294 295 296 297 300 301 304 307 302 306 304 305 289 291 296 303 296 297 298 292 292 296 296 296 294 295
296 296 296 296 295 296 295 293 292 293 290 289 294 290 293 293 293 294 294 294 296 296 300 300 303 302 302 300 293 283 280 279 287 295 284 286 294 289 289 291 291 291 292 292
296 295 295 294 294 295 295 289 293 293 293 289 288 288 291 290 292 294 295 295 295 295 299 301 299 295 296 297 284 277 275 274 276 279 278 279 284 286 285 287 286 285 287 288
295 295 295 294 294 294 290 288 291 292 293 286 292 286 287 289 291 293 293 293 294 295 298 299 296 282 284 281 278 272 270 270 272 273 275 286 282 281 280 284 283 281 280 279
295 294 293 292 293 292 290 290 290 291 289 281 282 287 286 288 287 289 293 295 295 295 295 287 284 274 274 270 269 268 267 267 272 269 271 276 278 276 275 276 279 278 278 277
291 291 291 291 290 287 288 290 290 290 287 279 280 284 286 285 287 289 290 294 296 291 288 280 276 270 266 267 267 266 265 265 266 267 272 271 273 273 272 271 272 275 274 274
289 289 287 284 285 286 289 289 281 279 274 275 285 280 287 288 286 284 289 292 293 292 285 276 271 269 268 266 265 264 264 264 265 266 268 268 269 271 270 269 268 269 270 270
288 278 281 286 284 286 275 277 278 273 275 272 272 277 284 285 284 283 290 289 291 291 285 280 273 270 267 264 264 263 263 263 264 264 265 266 266 267 269 269 267 267 268 268
285 283 283 282 274 275 279 269 271 273 273 270 270 273 278 280 285 285 286 289 288 286 279 278 274 270 265 263 262 262 262 261 262 263 264 264 264 264 265 265 266 266 267 267
284 277 271 275 268 274 272 270 271 270 270 269 269 270 272 276 284 281 283 284 284 280 276 273 270 266 264 262 261 261 261 261 261 262 263 263 264 263 263 263 264 265 265 266
269 270 273 268 266 264 262 263 263 267 269 267 268 267 270 272 280 280 281 281 280 278 277 275 267 264 262 261 261 260 260 260 261 261 262 262 263 263 263 263 263 264 264 265
266 268 268 266 264 263 263 262 262 265 265 266 269 271 275 270 274 274 278 277 272 271 273 266 264 262 261 260 260 260 260 260 260 260 261 262 262 263 263 262 263 263 264 264
264 263 265 262 263 263 263 262 264 265 265 265 267 270 273 272 267 271 268 274 275 270 260 261 262 261 261 260 259 259 259 259 260 260 261 261 262 262 262 262 263 263 263 263
264 264 256 258 259 263 263 263 265 265 266 273 272 276 273 269 269 266 262 267 263 260 260 261 261 261 260 259 259 259 259 259 259 260 261 261 262 262 262 261 261 262 262 263
Wind_Speed
45 46 66 66 66 58 44 4 5 28 44 10 6 8 11 7 6 4 4 5 6 6 7 11 15 11 10 11 17 18 15 5 10 14 6 2 14 12 19 10 19 3 1 11
42 65 64 66 66 52 30 4 7 16 33 5 9 6 6 4 4 4 3 4 3 3 7 5 6 8 2 8 14 11 13 8 9 3 3 4 7 15 19 19 2 18 12 10
60 60 63 65 55 45 26 5 7 3 3 0 17 16 8 5 4 4 5 6 5 5 3 4 6 5 3 1 11 15 9 6 10 13 5 5 13 18 18 23 13 22 19 19
57 62 63 55 49 39 25 3 3 1 8 4 12 11 12 8 5 3 4 4 4 7 4 3 5 4 1 2 5 3 6 12 14 14 8 3 11 19 25 24 34 17 26 21
58 57 54 52 42 34 9 4 5 3 5 11 16 8 8 14 6 7 5 7 6 5 7 9 7 7 6 5 5 8 6 7 8 16 13 12 12 16 16 26 29 25 27 18
52 49 47 48 31 18 4 3 5 6 7 4 7 5 9 13 8 3 9 10 7 8 14 5 3 3 2 2 6 5 4 2 7 19 11 14 14 28 24 24 27 30 27 38
45 42 41 33 19 13 15 5 6 5 3 7 5 8 4 11 15 7 4 9 8 5 5 1 2 5 8 9 10 8 5 6 2 8 9 17 23 15 29 31 31 29 29 17
44 39 35 31 21 15 27 5 5 4 4 5 5 11 6 7 7 6 7 6 6 6 5 3 3 3 3 10 17 18 17 8 4 5 12 4 7 9 26 22 32 29 29 31
44 39 34 27 22 26 27 18 12 4 7 5 6 6 6 5 4 3 3 1 1 5 3 3 6 5 7 5 5 21 18 18 8 9 12 9 13 7 18 11 20 32 30 26
43 38 36 36 30 21 20 16 12 8 4 2 5 5 6 5 4 3 4 4 2 1 4 4 3 4 5 4 5 7 7 12 19 16 12 8 5 7 22 15 14 11 25 23
39 40 36 30 24 19 24 15 13 7 3 2 3 2 4 4 4 5 5 4 3 3 8 4 4 5 7 4 5 6 9 6 10 9 7 14 8 20 22 11 1 3 2 14
33 26 22 15 16 14 19 9 20 20 7 3 5 6 4 2 1 4 6 5 5 4 5 5 3 4 3 5 4 4 5 8 4 11 7 2 8 6 3 0 2 2 3 6
29 27 24 20 17 14 12 16 9 12 4 3 3 1 2 1 1 2 3 2 2 3 2 2 3 7 3 5 6 3 5 4 3 3 2 6 11 8 14 7 3 2 2 4
30 28 25 21 17 17 21 14 10 10 3 4 2 1 2 2 3 2 1 2 2 2 1 2 3 3 2 2 2 1 1 8 5 1 5 3 9 16 14 10 9 7 8 7
27 26 26 24 24 25 28 27 16 11 4 4 3 2 2 2 2 4 6 3 1 1 2 3 3 2 1 2 3 5 7 5 4 3 8 7 4 14 16 10 10 10 8 9
24 24 24 28 18 11 7 4 15 12 5 4 3 2 3 6 4 4 6 5 3 2 2 2 2 2 4 2 3 7 11 11 9 7 16 14 13 6 16 10 12 12 13 11
22 18 15 12 8 10 8 4 5 6 1 3 3 2 3 2 2 0 1 1 2 2 2 2 2 5 6 3 3 14 15 16 14 14 18 1 12 7 12 11 13 15 18 18
22 25 26 21 15 12 11 16 14 4 8 4 3 1 3 5 2 2 1 2 2 2 1 3 3 3 4 5 12 15 16 18 7 19 16 10 8 10 13 18 11 11 12 10
13 13 9 7 11 5 7 10 6 16 9 3 3 2 2 4 2 1 2 1 0 2 3 3 3 4 6 7 12 13 14 12 15 19 6 13 12 10 11 11 13 11 10 9
8 2 6 3 4 9 3 4 4 5 4 5 3 2 2 2 2 3 2 2 1 2 3 4 4 3 5 10 9 9 11 12 13 9 10 14 12 12 11 11 7 7 7 9
4 3 2 3 6 3 4 3 4 4 5 4 3 2 3 3 3 2 1 2 2 1 2 3 2 2 5 11 9 9 12 14 11 10 9 8 7 9 8 7 8 9 11 9
7 10 6 6 7 4 6 2 4 5 0 5 3 4 3 4 1 2 3 0 2 1 2 3 2 2 7 9 10 11 13 14 13 13 10 11 10 11 9 8 9 10 12 15
6 7 5 4 5 10 6 4 4 3 5 5 5 4 3 4 2 1 3 4 1 3 4 2 1 4 6 8 8 9 13 14 13 13 14 14 12 14 14 11 14 13 15 16
5 5 8 4 5 2 3 3 3 3 3 5 5 3 2 3 4 2 5 1 3 3 3 2 2 4 6 6 6 7 9 12 12 13 14 13 13 12 14 15 14 14 16 17
4 5 4 3 2 0 1 1 2 2 3 3 3 3 2 3 3 3 2 5 4 2 1 1 1 3 5 6 6 7 7 10 10 11 12 13 13 12 12 15 16 16 16 17
4 7 3 2 3 3 3 2 2 2 5 2 2 1 3 4 2 5 2 1 1 2 1 1 2 3 4 5 8 10 11 11 11 12 13 12 13 12 10 13 16 16 15 15
5 3 1 2 1 3 2 1 3 7 3 2 2 4 1 2 4 3 3 1 1 1 1 1 1 3 4 8 9 10 11 12 12 12 13 12 10 9 12 11 14 13 12 12
Wind_Direction
180 174 146 152 147 139 132 91 112 152 146 152 174 175 143 133 146 87 95 92 95 138 169 190 194 201 197 191 182 195 199 231 228 219 175 211 242 216 201 207 215 223 188 250
144 153 151 144 140 147 134 94 104 143 148 145 165 135 142 122 126 128 133 116 137 168 148 149 178 193 319 176 180 186 181 220 232 208 266 206 229 223 207 223 123 223 226 246
146 148 142 139 142 145 120 110 131 50 95 91 157 158 167 108 91 105 104 115 88 97 136 45 157 168 266 248 199 210 187 198 226 227 225 147 209 201 222 211 225 235 228 247
143 141 140 140 141 144 118 48 86 54 160 175 156 146 156 127 125 90 112 47 147 140 113 118 182 183 256 270 202 151 222 231 215 237 260 313 230 219 215 209 224 218 237 233
142 140 140 144 143 151 81 114 131 46 83 123 136 146 179 165 145 135 181 134 162 155 163 183 176 159 189 193 191 176 190 256 219 238 238 228 237 241 234 222 228 231 247 251
139 138 144 147 151 153 87 112 88 103 127 91 132 181 152 185 124 44 150 139 148 198 217 189 200 214 215 193 174 162 130 306 251 257 224 235 237 230 220 231 235 219 229 234
141 143 149 153 146 126 111 113 95 87 124 120 144 133 103 157 183 132 157 151 159 228 134 94 302 269 249 236 226 187 195 205 125 282 245 220 241 222 217 217 223 224 236 246
145 136 136 140 133 127 123 97 101 109 103 101 112 143 115 129 160 169 153 196 175 143 102 79 306 239 242 236 230 212 205 175 179 246 260 291 264 221 197 198 231 224 229 238
127 130 130 134 136 133 110 76 94 99 108 216 140 124 148 148 150 36 175 300 58 113 155 163 201 214 203 250 243 206 195 208 197 227 245 235 247 178 189 183 252 229 227 236
121 121 128 135 138 140 109 62 78 85 101 25 123 163 167 146 131 131 139 157 116 190 172 216 198 236 187 207 207 165 180 209 208 210 240 278 238 187 137 164 241 195 207 219
119 123 124 120 118 114 113 64 63 102 98 50 44 81 129 126 139 147 185 98 209 157 193 189 214 224 219 180 226 177 175 216 202 207 188 247 176 148 164 204 2 95 163 215
120 128 129 125 112 110 121 87 80 81 77 103 63 77 69 30 319 127 178 177 173 165 187 211 214 222 220 193 240 182 202 195 210 206 201 271 180 351 24 352 164 188 224 247
108 112 116 118 123 132 130 106 89 77 94 66 73 114 193 271 35 116 168 203 154 194 66 251 231 235 166 203 224 87 135 341 226 172 19 341 28 359 4 339 45 36 35 81
99 103 106 110 116 120 125 95 77 82 105 111 215 142 91 145 188 227 204 74 77 32 248 227 257 244 200 270 23 89 25 321 332 48 11 318 51 13 336 338 360 32 51 57
97 102 105 106 108 108 99 83 64 72 111 132 139 249 181 216 215 234 237 207 158 181 223 202 237 259 213 95 100 34 357 8 348 39 8 315 359 345 344 21 11 1 40 62
91 98 104 109 95 76 75 55 36 39 99 111 110 287 14 0 303 274 215 204 184 220 230 226 213 72 324 115 86 42 5 346 331 318 318 303 293 10 8 28 25 19 43 51
88 100 99 84 61 64 64 94 347 348 20 86 97 14 305 286 293 20 12 105 213 218 254 234 68 22 16 54 73 349 347 334 318 351 338 75 18 347 358 32 46 51 54 49
91 95 97 87 74 77 52 26 15 19 90 64 97 243 30 10 330 357 207 218 193 183 14 47 41 28 42 60 344 345 346 337 348 342 333 340 348 3 16 34 33 53 54 48
98 96 80 57 36 39 352 3 43 46 62 104 73 104 212 344 336 279 329 225 102 42 50 45 55 20 47 343 338 340 346 348 322 319 319 6 18 14 22 43 32 52 49 45
103 72 46 32 20 331 3 29 22 17 350 22 66 324 348 6 358 317 15 4 342 62 56 91 55 75 125 13 349 345 340 332 335 348 359 357 359 1 15 41 45 46 48 48
48 54 98 5 348 56 32 44 57 335 28 10 316 328 319 330 43 282 52 290 324 73 36 93 63 40 359 348 344 352 345 345 343 345 344 346 337 346 355 22 37 42 49 49
85 111 80 34 29 33 74 5 349 40 24 333 322 315 332 301 327 48 330 144 33 50 10 75 52 18 352 342 345 349 350 348 344 352 348 357 13 11 7 359 23 44 61 61
59 49 50 25 323 43 58 346 339 18 346 10 348 320 345 319 4 339 53 51 36 121 42 83 68 348 347 346 343 338 348 353 356 357 4 10 17 29 27 14 25 40 55 71
63 51 27 60 356 36 176 190 214 274 349 338 309 275 320 306 0 318 82 290 37 61 53 359 8 355 344 345 340 341 343 352 352 358 2 6 8 17 32 36 44 45 45 55
66 50 49 59 253 338 232 217 339 316 311 327 311 280 288 336 45 19 30 37 59 70 203 17 9 360 349 345 343 340 345 348 352 353 359 1 6 10 23 37 43 49 53 53
69 42 53 339 50 329 3 2 302 3 329 281 231 283 54 28 83 49 14 38 118 167 164 328 346 348 356 347 342 338 337 342 349 357 360 2 11 11 15 33 42 41 46 46
48 32 63 117 132 240 291 347 308 315 291 26 320 53 181 321 55 28 350 54 187 186 260 234 47 352 354 349 346 344 344 350 355 1 9 7 15 28 33 22 22 33 38 40